Location: Santa Giusta
(39.8800°N, 8.6069°E)
Time: 17:22:20
(UTC+00:00)

CZ-4B DEB - Pass Details

Date: 02 February 2023
Orbit: 839 x 859 km, 99.1° (Epoch: 31 March)

Event Time Altitude Azimuth Distance (km) Brightness Sun altitude
Rises 17:55:56 0° 166° (SSE) 3,377 7.3 -13.8°
Reaches altitude 10° 17:58:17 10° 167° (SSE) 2,446 6.6 -14.2°
Maximum altitude 18:03:43 83° 256° (WSW) 851 4.2 -15.2°
Drops below altitude 10° 18:09:12 10° 345° (NNW) 2,468 6.7 -16.3°
Sets 18:11:34 0° 346° (NNW) 3,409 7.4 -16.7°
